Location: Lombard
(41.8800°N, 88.0080°W)
Time: 00:24:18
(UTC-05:00)

Transit 2A - Pass Details

Date: 10 February 2023
Orbit: 591 x 964 km, 66.7° (Epoch: 20 March)

Event Time Altitude Azimuth Distance (km) Brightness Sun altitude
Rises 00:03:40 0° 330° (NNW) 3,530 - -62.5°
Reaches altitude 10° 00:06:08 10° 332° (NNW) 2,624 - -62.5°
Maximum altitude 00:12:21 79° 59° (ENE) 976 - -62.5°
Drops below altitude 10° 00:18:44 10° 146° (SSE) 2,692 - -62.4°
Sets 00:21:17 0° 148° (SSE) 3,626 - -62.3°
